Location: Meinert
(37.9441°N, 122.0275°W)
Time: 19:29:10
(UTC+00:00)

CZ-2C R/B - Pass Details

Date: 18 April 2024
Orbit: 666 x 779 km, 98.4° (Epoch: 22 May)

Event Time Altitude Azimuth Distance (km) Brightness Sun altitude
Rises 12:22:34 0° 3° (N) 3,270 6.2 -12.9°
Reaches altitude 10° 12:25:03 10° 355° (N) 2,338 5.3 -12.5°
Maximum altitude 12:29:44 36° 290° (WNW) 1,209 3.2 -11.6°
Enters shadow 12:33:51 13° 228° (SW) 2,122 4.2 -10.9°
